KetuaPoker | Poker Online Indonesia Terbesar & Terpercaya

Jackpot

Texas Poker Multi Jackpot System

Kini Telah hadir Jackpot SUPER ROYAL FLUSH

Kini Telah hadir Jackpot 2000 (khusus table VIP keatas).

Ikutilah global jackpot yang tersedia di system kami, dengan system jackpot terbaru dan pertama di indonesia, anda dapat membeli jackpot dengan harga 100 rupiah saja dan menangkan hadiahnya hingga puluhan juta rupiah.

Jackpot bukanlah suatu keharusan untuk dibeli, namun kami memberikan suatu fitur tambahan untuk member tercinta dari www.ketuapkr.com.

Terdapat tiga pilihan harga jackpot yang bisa anda beli yaitu :100,500,1000 dan 2000(khusus table VIP Keatas) rupiah.

Hadiah dari Multi jackpot system www.ketuapkr.com

  1. full house x 10 harga jackpot yang anda beli.
      (contoh:anda membeli 1000 maka:1000 X10 = 10.000)
  2. four of kind x 250 harga jackpot yang anda beli
      (contoh:anda membeli 1000 maka:1000 X250 = 250.000)
  3. Straight flush x 1200
      (contoh:anda membeli 1000 maka:1000 X1200 = 1.200.000)
  4. Royal flush x 10000 harga jackpot yang anda beli
      (contoh:anda membeli 1000 maka:1000 X10000 = 10.000.000)
  5. SUPER ROYAL FLUSH x 30000 harga jackpot yang anda beli
      (contoh:anda membeli 1000 maka:1000 X30000 = 30.000.000)

Kondisi kartu

  1. full house adalah kondisi kartu dimana kartu anda dan kartu tengah dengan total 7 kartu bisa mendapatkan nilai 5 kartu dengan kombinasi 1 tris(three of kind) dan 1 pair, contoh 3 kartu 10 dan 2 kartu 5
  2. Four of kind adalah kondisi kartu dimana kartu anda dan kartu tengah dengan total 7 kartu bisa mendapatkan nilai 5 kartu dengan kombinasi 4 kartu yang sama jumlah dan 1 kartu apapun juga contoh anda mendapatkan 4 buah kartu angka 3 dan 1 kartu apapun.
  3. Staright flush adalah kondisi kartu dimana kartu anda dan kartu tengah dengan total 7 kartu bisa mendapatkan nilai 5 kartu dengan kombinasi seri / staright dengan kembang yang sama contoh : urutan kartu dari angka 5, 6, 7, 8 , 9 10 dengan kembang yg sama misalnya as hati
  4. Royal flush adalah kondisi kartu dimana kartu anda dan kartu tengah dengan total 7 kartu bisa mendapatkan nilai 5 kartu dengan kombinasi seri / staright dengan kembang yang sama tetapi kartu tersebut haruslah dimulai dari 10. contoh 10, Queen, Jack, King dan aces dengan kembang yang sama
  5. Super Royal flush adalah kondisi kartu dimana Kedua kartu anda digabung dengan 3 kartu pertama meja haruslah royal flush. contoh kartu anda 10,Queen kembang sama dan 3 kartu pertama meja adalah Jack, King dan aces dengan kembang yang sama

Demikian adalah penjelasan dari Multi Jackpot www.ketuapkr.com terima kasih dan selamat bermain salam hoki dari kami

Texas Poker Jackpot Winner

TOP SUPER ROYAL FLUSH
No.TanggalNamaPriceWin
123/02 02:23LAGEMI77Super Royal flush3,000,000
223/02 01:22BANGSONISuper Royal flush15,000,000
322/02 23:06KAFKA007Super Royal flush15,000,000
422/02 13:20MPOY654Super Royal flush3,000,000
522/02 11:48GOSGOS123Super Royal flush30,000,000
TOP ROYAL FLUSH
No.TanggalNamaPriceWin
123/02 02:51F1199CDARoyal flush5,000,000
223/02 02:30KODIM_07Royal flush5,000,000
323/02 02:26VINR3Royal flush1,000,000
423/02 02:13SKHR408Royal flush1,000,000
523/02 01:54JEPETARoyal flush1,000,000
TOP STRAIGHT FLUSH
No.TanggalNamaPriceWin
123/02 02:54FADLI_94Straight Flush2,400,000
223/02 02:53KEBO_GARUKStraight Flush1,200,000
323/02 02:52SILALAHI88Straight Flush120,000
423/02 02:51GELAVIAStraight Flush120,000
523/02 02:51SIBANGOR97Straight Flush1,200,000
LATEST JACKPOT
No.TanggalNamaPriceWin
123/02 02:54NCX999Full House1,000
223/02 02:54INDRAKOMFour Of A Kind250,000
323/02 02:54ANB07Full House10,000
423/02 02:54N0_B0_BO_Full House10,000
523/02 02:54FADLI_94Straight Flush2,400,000
623/02 02:54AEXRAYEFull House1,000
723/02 02:54LB88111Full House1,000
823/02 02:54KUPUTEMPEOFull House1,000
923/02 02:54PASEERFull House1,000
1023/02 02:54CONWAWFull House5,000
1123/02 02:54NAYYY28Full House1,000
1223/02 02:54VCUN68Full House5,000
1323/02 02:54FADLY101Full House5,000
1423/02 02:54ZETZU9131Full House10,000
1523/02 02:54AINUL699Full House5,000
1623/02 02:54DISILENTFull House1,000
1723/02 02:54DEPOR8Full House1,000
1823/02 02:54C3373F9DFull House5,000
1923/02 02:54DWBTACAN16Full House1,000
2023/02 02:54B4L29Full House5,000
2123/02 02:54KELIPUTEHFull House10,000
2223/02 02:54GOINK88Full House1,000
2323/02 02:54GOINK8Full House1,000
2423/02 02:54MAIZONE979Full House1,000
2523/02 02:54ABAH199Full House1,000
2623/02 02:54CACHA202Full House1,000
2723/02 02:53ISENG4JAFull House10,000
2823/02 02:53CMD39483Four Of A Kind250,000
2923/02 02:53KARPOLING1Full House5,000
3023/02 02:53D4LLE889Full House5,000
3123/02 02:53INI_MINOFull House1,000
3223/02 02:53OR4Y_NAG4Full House1,000
3323/02 02:53PUYUYFull House1,000
3423/02 02:53LOLIPOPAJAFull House1,000
3523/02 02:53RIG01Full House10,000
3623/02 02:53AAIPENKFull House1,000
3723/02 02:53NB8DUTPJ6OFull House5,000
3823/02 02:53FD7E825FFull House1,000
3923/02 02:53OMZET2015Full House10,000
4023/02 02:53DEVIN1016Full House20,000
4123/02 02:53ABIN16Four Of A Kind250,000
4223/02 02:53DEREXCONFull House5,000
4323/02 02:53PANCING88Full House1,000
4423/02 02:53COKOR8000Full House10,000
4523/02 02:53MOBEFull House1,000
4623/02 02:53JEEEP22Full House1,000
4723/02 02:53IZ321952Full House1,000
4823/02 02:53OM_J88Full House5,000
4923/02 02:53JON3SSSFour Of A Kind125,000
5023/02 02:53DUANOLAPFull House1,000

Domino Multi Jackpot System

Ikutilah global jackpot yang tersedia di system kami, dengan system jackpot terbaru dan pertama di indonesia, anda dapat membeli jackpot dengan harga 100 rupiah saja dan menangkan hadiahnya hingga puluhan juta rupiah.

Jackpot bukanlah suatu keharusan untuk dibeli, namun kami memberikan suatu fitur tambahan untuk member tercinta dari www.ketuapkr.com.

Terdapat tiga pilihan harga jackpot yang bisa anda beli yaitu :100,500 dan 1000 rupiah.

Hadiah dari Multi jackpot system www.ketuapkr.com

  1. Murni Kecil x 50 harga jackpot yang anda beli.
      (contoh:anda membeli 1000 maka:1000 X 50 = 50.000)
  2. Murni Besar x 50 harga jackpot yang anda beli
      (contoh:anda membeli 1000 maka:1000 X 50 = 50.000)
  3. BALAK x 100 harga jackpot yang anda beli
      (contoh:anda membeli 1000 maka:1000 X 100 = 100.000)
  4. ENAM DEWA x 6666 harga jackpot yang anda beli
      (contoh:anda membeli 1000 maka:1000 X 6666 = 6.666.000)

Demikian adalah penjelasan dari Multi Jackpot www.ketuapkr.com terima kasih dan selamat bermain salam hoki dari kami

Domino Jackpot Winner

TOP ENAM DEWA
No.TanggalNamaPriceWin
123/02 02:20AWANGAWANGmurni enam6,666,000
223/02 02:01GOSI96murni enam6,666,000
323/02 02:00B9015276murni enam666,600
423/02 01:31TOPASBASSImurni enam666,600
523/02 01:09ANGEL62murni enam3,333,000
TOP BALAK
No.TanggalNamaPriceWin
123/02 02:51HASANCUCU1balak10,000
223/02 02:49BOROKOK99balak50,000
323/02 02:44POER04balak10,000
423/02 02:39SUBUR17balak10,000
523/02 02:34TITA222balak100,000
LATEST JACKPOT
No.TanggalNamaPriceWin
123/02 02:54JOKIROSmurni kecil5,000
223/02 02:53HERNOmurni besar5,000
323/02 02:51HASANCUCU1balak10,000
423/02 02:49BOROKOK99balak50,000
523/02 02:48HOK1HAMZALmurni besar25,000
623/02 02:46V3RR477murni kecil50,000
723/02 02:46LEN82murni kecil50,000
823/02 02:46KRIWOELmurni besar50,000
923/02 02:44POER04balak10,000
1023/02 02:44KUDA5777murni kecil25,000
1123/02 02:44QUANTUMX88murni kecil25,000
1223/02 02:43MENANGLOBAmurni besar50,000
1323/02 02:43OWEN28murni besar25,000
1423/02 02:42SRUNTUL14murni besar5,000
1523/02 02:42TITA222murni kecil50,000
1623/02 02:42BAHJUDImurni kecil25,000
1723/02 02:41IQBALROISmurni besar50,000
1823/02 02:41SIMPS0Nmurni besar5,000
1923/02 02:40ASTRO45murni kecil50,000
2023/02 02:40KIEKIE88murni kecil5,000
2123/02 02:40ONYOL98murni besar50,000
2223/02 02:40CHIMOL87murni kecil5,000
2323/02 02:39JOGIUDAINAmurni kecil25,000
2423/02 02:39SUBUR17balak10,000
2523/02 02:37LAMPAJA9murni besar25,000
2623/02 02:37CACO1010murni kecil5,000
2723/02 02:36SIRAJAWEDEmurni besar5,000
2823/02 02:35ERIC112murni besar50,000
2923/02 02:34TITA222balak100,000
3023/02 02:34KOMISI7murni kecil25,000
3123/02 02:34SAMUDRAZmurni besar50,000
3223/02 02:34TOJENXBERAmurni kecil50,000
3323/02 02:34ELIZ54B3T6balak50,000
3423/02 02:34A2AB1919murni kecil5,000
3523/02 02:33NAOY55balak50,000
3623/02 02:32LEN82murni besar50,000
3723/02 02:31GERGAJI8murni kecil50,000
3823/02 02:29WOLVERINE2murni besar5,000
3923/02 02:29MARMOTTmurni kecil50,000
4023/02 02:29SAUMA8murni besar50,000
4123/02 02:28SAUMA8balak100,000
4223/02 02:28AC69murni kecil50,000
4323/02 02:28T3G4_BGTmurni kecil50,000
4423/02 02:28IKARmurni besar25,000
4523/02 02:25IT0murni besar50,000
4623/02 02:24SARAH74murni besar25,000
4723/02 02:23IRENGQQmurni besar5,000
4823/02 02:22DIDIDITmurni besar25,000
4923/02 02:22JINGGAJUJPmurni besar5,000
5023/02 02:20AWANGAWANGmurni enam6,666,000

Ceme Multi Jackpot System

Jackpot dilihat dari gabungan kartu pemain dengan kartu bandar. Bandar harus membeli jackpot sebanyak jumlah player yang sedang duduk. Sebagai contoh bila terdapat 3 pemain duduk bermain, dan bandar memutuskan untuk membeli jackpot Rp 1.000, maka pada periode tersebut bandar akan membeli jackpot sebanyak 3xRp1.000 = Rp3.000.

Jackpot bukanlah suatu keharusan untuk dibeli, namun kami memberikan suatu fitur tambahan untuk member tercinta dari www.ketuapkr.com.

Terdapat tiga pilihan harga jackpot yang bisa anda beli yaitu :100,500 dan 1000 rupiah.

Hadiah dari Multi jackpot system www.ketuapkr.com

  1. Murni Kecil x 50 harga jackpot yang anda beli.
      (contoh:anda membeli 1000 maka:1000 X 50 = 50.000)
  2. Murni Besar x 50 harga jackpot yang anda beli
      (contoh:anda membeli 1000 maka:1000 X 50 = 50.000)
  3. BALAK x 200 harga jackpot yang anda beli
      (contoh:anda membeli 1000 maka:1000 X 200 = 200.000)
  4. ENAM DEWA x 6666 harga jackpot yang anda beli
      (contoh:anda membeli 1000 maka:1000 X 6666 = 6.666.000)

Demikian adalah penjelasan dari Multi Jackpot www.ketuapkr.com terima kasih dan selamat bermain salam hoki dari kami

Ceme Jackpot Winner

TOP ENAM DEWA
No.TanggalNamaPriceWin
123/02 02:18BLAEM45murni enam6,666,000
223/02 02:07SHAHIBULmurni enam3,333,000
323/02 01:05LABANANmurni enam6,666,000
423/02 01:05FERANI99murni enam666,600
523/02 01:02ONOISURmurni enam3,333,000
TOP BALAK
No.TanggalNamaPriceWin
123/02 02:53SUMIRAN8balak20,000
223/02 02:53SABRINA123balak200,000
323/02 02:52RIYADI500balak200,000
423/02 02:52THOMASRAbalak200,000
523/02 02:51N7MW939VY7balak100,000
LATEST JACKPOT
No.TanggalNamaPriceWin
123/02 02:54JAGATALAMmurni besar50,000
223/02 02:54SRPUNGOmurni besar50,000
323/02 02:54TAISIAULANmurni besar50,000
423/02 02:53BOOIIMmurni kecil25,000
523/02 02:53SUMIRAN8balak20,000
623/02 02:53BC8C126Fmurni kecil50,000
723/02 02:53STRS0811murni kecil5,000
823/02 02:53SABRINA123balak200,000
923/02 02:53AISUN2murni kecil50,000
1023/02 02:53CE_BLONGmurni besar50,000
1123/02 02:53AWID28murni besar25,000
1223/02 02:53DEBOL45murni besar50,000
1323/02 02:52BC8C126Fmurni kecil50,000
1423/02 02:52RIYADI500balak200,000
1523/02 02:5299TERUSmurni besar50,000
1623/02 02:52REZA340murni besar5,000
1723/02 02:52THOMASRAbalak200,000
1823/02 02:52DINDULmurni kecil5,000
1923/02 02:51CE_BLONGmurni kecil50,000
2023/02 02:51SHAHIBULmurni besar50,000
2123/02 02:51BAD_MENmurni besar25,000
2223/02 02:51N7MW939VY7balak100,000
2323/02 02:50PX5701ID6Dmurni kecil5,000
2423/02 02:50TARMIN99murni kecil25,000
2523/02 02:50DARSA20murni kecil50,000
2623/02 02:50PIG2VJDCRBmurni kecil50,000
2723/02 02:50RENGAS75murni kecil5,000
2823/02 02:50XIXOXmurni kecil5,000
2923/02 02:50RENGAS75murni kecil5,000
3023/02 02:50TOPPPASSS9balak200,000
3123/02 02:50NOST999balak100,000
3223/02 02:49M453KOmurni kecil5,000
3323/02 02:49TIREX79murni besar50,000
3423/02 02:49OKC5XLV30Cmurni besar50,000
3523/02 02:49SHAKA505balak100,000
3623/02 02:49KUBGRFOZCNmurni kecil25,000
3723/02 02:49IPRO3Lmurni besar25,000
3823/02 02:49SREENGbalak200,000
3923/02 02:49UPSSSSbalak100,000
4023/02 02:49FERANI99murni besar25,000
4123/02 02:4899TERUSmurni kecil50,000
4223/02 02:48RYAN881murni kecil50,000
4323/02 02:48IWANGCOYmurni kecil50,000
4423/02 02:48CH3M3murni kecil5,000
4523/02 02:48NICKONIACbalak200,000
4623/02 02:48WAYWAYWAYbalak100,000
4723/02 02:48DEWI390murni besar50,000
4823/02 02:47PENGAMPOTmurni kecil25,000
4923/02 02:47SURYA208murni besar5,000
5023/02 02:47ONITU999balak200,000